Time,TemperatureF,DewpointF,PressureIn,WindDirection,WindDirectionDegrees,WindSpeedMPH,WindSpeedGustMPH,Humidity,HourlyPrecipIn,Conditions,Clouds,dailyrainin,SoftwareType,DateUTC
2013-11-16 00:00:00,35.5,29.9,30.14,NE,51,0.0,0.0,80,0.00,CLR,,0.00,WeatherDisplay:10.37,2013-11-16 05:00:00,
2013-11-16 00:05:00,35.6,30.0,30.14,NE,51,0.0,0.0,80,0.00,CLR,,0.00,WeatherDisplay:10.37,2013-11-16 05:05:00,
2013-11-16 00:10:00,35.7,30.1,30.14,NE,51,0.0,0.0,80,0.00,CLR,,0.00,WeatherDisplay:10.37,2013-11-16 05:10:00,
2013-11-16 00:15:00,35.6,29.8,30.14,NE,51,0.0,0.0,79,0.00,CLR,,0.00,WeatherDisplay:10.37,2013-11-16 05:15:00,
2013-11-16 00:25:00,35.6,29.1,30.14,NE,51,0.0,0.0,77,0.00,CLR,,0.00,WeatherDisplay:10.37,2013-11-16 05:25:00,
2013-11-16 00:30:00,35.6,29.4,30.14,NE,51,0.0,0.0,78,0.00,CLR,,0.00,WeatherDisplay:10.37,2013-11-16 05:30:00,
2013-11-16 00:35:00,35.4,29.6,30.13,NE,51,0.0,0.0,79,0.00,CLR,,0.00,WeatherDisplay:10.37,2013-11-16 05:35:00,
2013-11-16 00:40:00,35.3,29.8,30.14,NE,51,0.0,0.0,80,0.00,CLR,,0.00,WeatherDisplay:10.37,2013-11-16 05:40:00,
2013-11-16 00:45:00,35.3,29.4,30.14,NE,51,0.0,0.0,79,0.00,CLR,,0.00,WeatherDisplay:10.37,2013-11-16 05:45:00,
2013-11-16 00:55:00,35.3,29.1,30.13,NE,51,0.0,0.0,78,0.00,CLR,,0.00,WeatherDisplay:10.37,2013-11-16 05:55:00,
2013-11-16 01:00:00,35.3,29.4,30.13,NE,51,0.0,0.0,79,0.00,CLR,,0.00,WeatherDisplay:10.37,2013-11-16 06:00:00,
2013-11-16 01:10:00,35.5,29.0,30.14,NE,51,0.0,0.0,77,0.00,CLR,,0.00,WeatherDisplay:10.37,2013-11-16 06:10:00,
2013-11-16 01:15:00,35.7,29.2,30.14,NE,51,0.0,0.0,77,0.00,CLR,,0.00,WeatherDisplay:10.37,2013-11-16 06:15:00,
2013-11-16 01:20:00,35.9,29.4,30.14,NE,51,0.0,0.0,77,0.00,CLR,,0.00,WeatherDisplay:10.37,2013-11-16 06:20:00,
2013-11-16 01:25:00,36.2,30.0,30.14,NE,51,0.0,0.0,78,0.00,CLR,,0.00,WeatherDisplay:10.37,2013-11-16 06:25:00,
2013-11-16 01:30:00,36.5,30.6,30.14,NE,51,0.0,0.0,79,0.00,CLR,,0.00,WeatherDisplay:10.37,2013-11-16 06:30:00,
2013-11-16 01:40:00,37.0,31.1,30.14,NE,51,0.0,0.0,79,0.00,CLR,,0.00,WeatherDisplay:10.37,2013-11-16 06:40:00,
2013-11-16 01:45:00,37.0,31.1,30.14,NE,51,0.0,0.0,79,0.00,CLR,,0.00,WeatherDisplay:10.37,2013-11-16 06:45:00,
2013-11-16 01:55:00,37.0,31.1,30.13,NE,51,0.0,0.0,79,0.00,CLR,,0.00,WeatherDisplay:10.37,2013-11-16 06:55:00,
2013-11-16 02:00:00,37.0,30.8,30.13,NE,51,0.0,0.0,78,0.00,CLR,,0.00,WeatherDisplay:10.37,2013-11-16 07:00:00,
2013-11-16 02:10:00,37.3,31.1,30.14,NE,51,0.0,0.0,78,0.00,CLR,,0.00,WeatherDisplay:10.37,2013-11-16 07:10:00,
2013-11-16 02:15:00,37.4,31.2,30.15,NE,51,0.0,0.0,78,0.00,CLR,,0.00,WeatherDisplay:10.37,2013-11-16 07:15:00,
2013-11-16 02:25:00,37.6,31.0,30.15,NE,51,0.0,0.0,77,0.00,CLR,,0.00,WeatherDisplay:10.37,2013-11-16 07:25:00,
2013-11-16 02:30:00,37.7,31.1,30.15,NE,51,0.0,0.0,77,0.00,CLR,,0.00,WeatherDisplay:10.37,2013-11-16 07:30:00,
2013-11-16 02:40:00,37.9,31.6,30.14,NE,51,0.0,0.0,78,0.00,CLR,,0.00,WeatherDisplay:10.37,2013-11-16 07:40:00,
2013-11-16 02:45:00,37.9,32.0,30.15,NE,51,0.0,0.0,79,0.00,CLR,,0.00,WeatherDisplay:10.37,2013-11-16 07:45:00,
2013-11-16 02:55:00,37.9,30.7,30.15,NE,51,0.0,0.0,75,0.00,CLR,,0.00,WeatherDisplay:10.37,2013-11-16 07:55:00,
2013-11-16 03:00:00,38.0,30.8,30.15,NE,51,0.0,0.0,75,0.00,CLR,,0.00,WeatherDisplay:10.37,2013-11-16 08:00:00,
2013-11-16 03:10:00,38.2,30.6,30.15,NE,51,0.0,0.0,74,0.00,CLR,,0.00,WeatherDisplay:10.37,2013-11-16 08:10:00,
2013-11-16 03:15:00,38.2,30.6,30.15,NE,51,0.0,0.0,74,0.00,CLR,,0.00,WeatherDisplay:10.37,2013-11-16 08:15:00,
2013-11-16 03:25:00,38.0,31.1,30.16,NE,51,0.0,0.0,76,0.00,CLR,,0.00,WeatherDisplay:10.37,2013-11-16 08:25:00,
2013-11-16 03:30:00,37.8,30.9,30.17,NE,51,0.0,0.0,76,0.00,CLR,,0.00,WeatherDisplay:10.37,2013-11-16 08:30:00,
2013-11-16 03:40:00,37.2,31.0,30.17,NE,51,0.0,0.0,78,0.00,CLR,,0.00,WeatherDisplay:10.37,2013-11-16 08:40:00,
2013-11-16 03:45:00,37.0,30.8,30.17,NE,51,0.0,0.0,78,0.00,CLR,,0.00,WeatherDisplay:10.37,2013-11-16 08:45:00,
2013-11-16 03:55:00,36.7,30.5,30.18,NE,51,0.0,0.0,78,0.00,CLR,,0.00,WeatherDisplay:10.37,2013-11-16 08:55:00,
2013-11-16 04:00:00,36.6,30.4,30.19,NE,51,0.0,0.0,78,0.00,CLR,,0.00,WeatherDisplay:10.37,2013-11-16 09:00:00,
2013-11-16 04:10:00,36.2,30.0,30.19,NE,51,0.0,0.0,78,0.00,CLR,,0.00,WeatherDisplay:10.37,2013-11-16 09:10:00,
2013-11-16 04:15:00,36.1,29.9,30.19,NE,51,0.0,0.0,78,0.00,CLR,,0.00,WeatherDisplay:10.37,2013-11-16 09:15:00,
2013-11-16 04:25:00,36.3,29.7,30.20,NE,51,0.0,0.0,77,0.00,CLR,,0.00,WeatherDisplay:10.37,2013-11-16 09:25:00,
2013-11-16 04:30:00,36.4,30.2,30.20,NE,51,0.0,0.0,78,0.00,CLR,,0.00,WeatherDisplay:10.37,2013-11-16 09:30:00,
2013-11-16 04:40:00,36.7,30.8,30.20,NE,51,0.0,0.0,79,0.00,CLR,,0.00,WeatherDisplay:10.37,2013-11-16 09:40:00,
2013-11-16 04:45:00,36.7,30.5,30.20,NE,51,0.0,0.0,78,0.00,CLR,,0.00,WeatherDisplay:10.37,2013-11-16 09:45:00,
2013-11-16 04:55:00,37.0,31.1,30.21,NE,51,0.0,0.0,79,0.00,CLR,,0.00,WeatherDisplay:10.37,2013-11-16 09:55:00,
2013-11-16 05:00:00,37.0,30.8,30.21,NE,51,0.0,0.0,78,0.00,CLR,,0.00,WeatherDisplay:10.37,2013-11-16 10:00:00,
2013-11-16 05:10:00,37.2,31.3,30.21,NE,51,0.0,0.0,79,0.00,CLR,,0.00,WeatherDisplay:10.37,2013-11-16 10:10:00,
2013-11-16 05:15:00,37.3,31.7,30.21,NE,51,0.0,0.0,80,0.00,CLR,,0.00,WeatherDisplay:10.37,2013-11-16 10:15:00,
2013-11-16 05:25:00,37.4,32.7,30.22,NE,51,0.0,0.0,83,0.00,CLR,,0.00,WeatherDisplay:10.37,2013-11-16 10:25:00,
2013-11-16 05:30:00,37.4,34.2,30.22,NE,51,0.0,0.0,88,0.00,CLR,,0.00,WeatherDisplay:10.37,2013-11-16 10:30:00,
2013-11-16 05:35:00,37.1,34.2,30.22,NE,51,0.0,0.0,89,0.00,CLR,,0.00,WeatherDisplay:10.37,2013-11-16 10:35:00,
2013-11-16 05:45:00,36.3,33.6,30.22,NE,51,0.0,0.0,90,0.00,CLR,,0.00,WeatherDisplay:10.37,2013-11-16 10:45:00,
2013-11-16 05:55:00,35.8,33.7,30.22,NE,51,0.0,0.0,92,0.00,CLR,,0.00,WeatherDisplay:10.37,2013-11-16 10:55:00,
2013-11-16 06:00:00,35.7,33.6,30.23,NE,51,0.0,0.0,92,0.00,CLR,,0.00,WeatherDisplay:10.37,2013-11-16 11:00:00,
2013-11-16 06:05:00,35.5,33.4,30.22,NE,51,0.0,0.0,92,0.00,CLR,,0.00,WeatherDisplay:10.37,2013-11-16 11:05:00,
2013-11-16 06:15:00,35.6,33.5,30.21,NE,51,0.0,0.0,92,0.00,CLR,,0.00,WeatherDisplay:10.37,2013-11-16 11:15:00,
2013-11-16 06:25:00,35.8,34.0,30.20,North,3,0.0,6.0,93,0.00,CLR,,0.00,WeatherDisplay:10.37,2013-11-16 11:25:00,
2013-11-16 06:30:00,35.6,33.7,30.20,NW,317,0.0,0.0,93,0.00,CLR,,0.00,WeatherDisplay:10.37,2013-11-16 11:30:00,
2013-11-16 06:40:00,35.2,33.9,30.22,WNW,303,2.0,7.0,95,0.00,CLR,,0.00,WeatherDisplay:10.37,2013-11-16 11:40:00,
2013-11-16 06:45:00,34.9,33.6,30.22,WSW,237,5.0,8.0,95,0.00,CLR,,0.00,WeatherDisplay:10.37,2013-11-16 11:45:00,
2013-11-16 06:55:00,35.2,33.4,30.22,SSW,208,0.0,0.0,93,0.00,CLR,,0.00,WeatherDisplay:10.37,2013-11-16 11:55:00,
2013-11-16 07:00:00,35.4,33.9,30.23,South,181,0.0,0.0,94,0.00,CLR,,0.00,WeatherDisplay:10.37,2013-11-16 12:00:00,
2013-11-16 07:10:00,35.7,33.8,30.24,South,181,0.0,0.0,93,0.00,CLR,,0.00,WeatherDisplay:10.37,2013-11-16 12:10:00,
2013-11-16 07:15:00,35.7,33.6,30.24,South,181,0.0,0.0,92,0.00,CLR,,0.00,WeatherDisplay:10.37,2013-11-16 12:15:00,
2013-11-16 07:25:00,36.0,33.9,30.23,South,181,0.0,0.0,92,0.00,CLR,,0.00,WeatherDisplay:10.37,2013-11-16 12:25:00,
2013-11-16 07:30:00,36.1,34.0,30.24,South,181,0.0,0.0,92,0.00,CLR,,0.00,WeatherDisplay:10.37,2013-11-16 12:30:00,
2013-11-16 07:40:00,36.5,34.4,30.24,South,181,0.0,0.0,92,0.00,CLR,,0.00,WeatherDisplay:10.37,2013-11-16 12:40:00,
2013-11-16 07:45:00,36.8,34.7,30.23,South,181,0.0,0.0,92,0.00,CLR,,0.00,WeatherDisplay:10.37,2013-11-16 12:45:00,
2013-11-16 07:55:00,37.3,34.6,30.24,South,181,0.0,0.0,90,0.00,CLR,,0.00,WeatherDisplay:10.37,2013-11-16 12:55:00,
2013-11-16 08:00:00,37.6,34.9,30.24,South,181,0.0,0.0,90,0.00,CLR,,0.00,WeatherDisplay:10.37,2013-11-16 13:00:00,
2013-11-16 08:10:00,38.2,34.7,30.25,South,181,0.0,0.0,87,0.00,CLR,,0.00,WeatherDisplay:10.37,2013-11-16 13:10:00,
2013-11-16 08:15:00,38.5,34.4,30.25,South,181,0.0,0.0,85,0.00,CLR,,0.00,WeatherDisplay:10.37,2013-11-16 13:15:00,
2013-11-16 08:25:00,38.9,34.2,30.25,South,181,0.0,0.0,83,0.00,CLR,,0.00,WeatherDisplay:10.37,2013-11-16 13:25:00,
2013-11-16 08:30:00,39.1,34.1,30.25,South,181,0.0,0.0,82,0.00,CLR,,0.00,WeatherDisplay:10.37,2013-11-16 13:30:00,
2013-11-16 08:40:00,39.7,35.0,30.25,South,181,0.0,0.0,83,0.00,CLR,,0.00,WeatherDisplay:10.37,2013-11-16 13:40:00,
2013-11-16 08:45:00,39.9,35.2,30.26,South,181,0.0,0.0,83,0.00,CLR,,0.00,WeatherDisplay:10.37,2013-11-16 13:45:00,
2013-11-16 08:55:00,40.2,35.7,30.26,South,181,0.0,0.0,84,0.00,CLR,,0.00,WeatherDisplay:10.37,2013-11-16 13:55:00,
2013-11-16 09:00:00,40.4,35.9,30.26,South,181,0.0,0.0,84,0.00,CLR,,0.00,WeatherDisplay:10.37,2013-11-16 14:00:00,
2013-11-16 09:10:00,41.0,37.1,30.26,South,181,0.0,0.0,86,0.00,CLR,,0.00,WeatherDisplay:10.37,2013-11-16 14:10:00,
2013-11-16 09:15:00,41.3,37.1,30.25,South,181,0.0,0.0,85,0.00,CLR,,0.00,WeatherDisplay:10.37,2013-11-16 14:15:00,
2013-11-16 09:25:00,42.0,38.1,30.26,South,181,0.0,0.0,86,0.00,CLR,,0.00,WeatherDisplay:10.37,2013-11-16 14:25:00,
2013-11-16 09:30:00,42.1,38.2,30.26,South,181,0.0,0.0,86,0.00,CLR,,0.00,WeatherDisplay:10.37,2013-11-16 14:30:00,
2013-11-16 09:40:00,42.0,37.5,30.27,South,181,0.0,1.0,84,0.00,CLR,,0.00,WeatherDisplay:10.37,2013-11-16 14:40:00,
2013-11-16 09:45:00,41.9,37.4,30.27,South,181,0.0,0.0,84,0.00,CLR,,0.00,WeatherDisplay:10.37,2013-11-16 14:45:00,
2013-11-16 09:55:00,41.7,36.3,30.28,NW,309,0.0,0.0,81,0.00,CLR,,0.00,WeatherDisplay:10.37,2013-11-16 14:55:00,
2013-11-16 10:00:00,41.7,36.0,30.29,NW,309,0.0,0.0,80,0.00,CLR,,0.00,WeatherDisplay:10.37,2013-11-16 15:00:00,
2013-11-16 10:10:00,42.0,35.3,30.28,NW,309,0.0,0.0,77,0.00,CLR,,0.00,WeatherDisplay:10.37,2013-11-16 15:10:00,
2013-11-16 10:15:00,42.1,35.7,30.28,NW,309,0.0,0.0,78,0.00,CLR,,0.00,WeatherDisplay:10.37,2013-11-16 15:15:00,
2013-11-16 10:25:00,42.5,36.4,30.28,NW,309,0.0,0.0,79,0.00,CLR,,0.00,WeatherDisplay:10.37,2013-11-16 15:25:00,
2013-11-16 10:30:00,42.8,35.1,30.28,NW,309,0.0,0.0,74,0.00,CLR,,0.00,WeatherDisplay:10.37,2013-11-16 15:30:00,
2013-11-16 10:40:00,44.2,35.0,30.27,NW,309,0.0,0.0,70,0.00,CLR,,0.00,WeatherDisplay:10.37,2013-11-16 15:40:00,
2013-11-16 10:45:00,44.9,35.0,30.27,NW,309,0.0,0.0,68,0.00,CLR,,0.00,WeatherDisplay:10.37,2013-11-16 15:45:00,
2013-11-16 10:55:00,46.6,35.5,30.27,NW,309,0.0,0.0,65,0.00,CLR,,0.00,WeatherDisplay:10.37,2013-11-16 15:55:00,
2013-11-16 11:00:00,47.4,34.6,30.27,NW,309,0.0,0.0,61,0.00,CLR,,0.00,WeatherDisplay:10.37,2013-11-16 16:00:00,
2013-11-16 11:10:00,48.6,34.9,30.27,NW,309,0.0,0.0,59,0.00,CLR,,0.00,WeatherDisplay:10.37,2013-11-16 16:10:00,
2013-11-16 11:15:00,49.5,36.2,30.26,NW,309,0.0,2.0,60,0.00,CLR,,0.00,WeatherDisplay:10.37,2013-11-16 16:15:00,
2013-11-16 11:25:00,50.2,33.7,30.26,NNW,334,0.0,5.0,53,0.00,CLR,,0.00,WeatherDisplay:10.37,2013-11-16 16:25:00,
2013-11-16 11:30:00,50.4,33.9,30.26,North,8,0.0,0.0,53,0.00,CLR,,0.00,WeatherDisplay:10.37,2013-11-16 16:30:00,
2013-11-16 11:40:00,51.1,35.1,30.26,North,10,0.0,0.0,54,0.00,CLR,,0.00,WeatherDisplay:10.37,2013-11-16 16:40:00,
2013-11-16 11:45:00,51.6,35.0,30.26,North,10,0.0,0.0,53,0.00,CLR,,0.00,WeatherDisplay:10.37,2013-11-16 16:45:00,
2013-11-16 11:55:00,52.0,34.0,30.25,North,10,0.0,0.0,50,0.00,CLR,,0.00,WeatherDisplay:10.37,2013-11-16 16:55:00,
2013-11-16 12:00:00,52.2,34.1,30.25,North,11,0.0,3.0,50,0.00,CLR,,0.00,WeatherDisplay:10.37,2013-11-16 17:00:00,
2013-11-16 12:10:00,52.5,33.9,30.25,NNE,18,0.0,0.0,49,0.00,CLR,,0.00,WeatherDisplay:10.37,2013-11-16 17:10:00,
2013-11-16 12:15:00,52.8,37.1,30.25,NNW,345,0.0,3.0,55,0.00,CLR,,0.00,WeatherDisplay:10.37,2013-11-16 17:15:00,
2013-11-16 12:25:00,53.3,36.6,30.25,South,182,1.0,7.0,53,0.00,CLR,,0.00,WeatherDisplay:10.37,2013-11-16 17:25:00,
2013-11-16 12:30:00,53.5,37.2,30.25,SSE,167,0.0,5.0,54,0.00,CLR,,0.00,WeatherDisplay:10.37,2013-11-16 17:30:00,
2013-11-16 12:40:00,53.6,36.4,30.25,SSW,207,0.0,5.0,52,0.00,CLR,,0.00,WeatherDisplay:10.37,2013-11-16 17:40:00,
2013-11-16 12:45:00,53.7,35.4,30.25,SSE,157,3.0,6.0,50,0.00,CLR,,0.00,WeatherDisplay:10.37,2013-11-16 17:45:00,
2013-11-16 12:55:00,54.0,36.8,30.25,SSE,161,0.0,2.0,52,0.00,CLR,,0.00,WeatherDisplay:10.37,2013-11-16 17:55:00,
2013-11-16 13:00:00,54.2,36.5,30.24,SSE,161,0.0,0.0,51,0.00,CLR,,0.00,WeatherDisplay:10.37,2013-11-16 18:00:00,
2013-11-16 13:10:00,54.4,36.6,30.24,NNW,328,0.0,0.0,51,0.00,CLR,,0.00,WeatherDisplay:10.37,2013-11-16 18:10:00,
2013-11-16 13:15:00,54.6,36.8,30.24,NNW,330,0.0,0.0,51,0.00,CLR,,0.00,WeatherDisplay:10.37,2013-11-16 18:15:00,
2013-11-16 13:25:00,54.6,36.3,30.24,NNW,330,0.0,0.0,50,0.00,CLR,,0.00,WeatherDisplay:10.37,2013-11-16 18:25:00,
2013-11-16 13:30:00,54.7,36.9,30.24,NW,311,0.0,3.0,51,0.00,CLR,,0.00,WeatherDisplay:10.37,2013-11-16 18:30:00,
2013-11-16 13:40:00,54.9,37.6,30.24,SW,218,0.0,3.0,52,0.00,CLR,,0.00,WeatherDisplay:10.37,2013-11-16 18:40:00,
2013-11-16 13:45:00,55.1,37.3,30.24,WSW,247,0.0,6.0,51,0.00,CLR,,0.00,WeatherDisplay:10.37,2013-11-16 18:45:00,
2013-11-16 13:55:00,55.2,35.8,30.24,SSW,197,1.0,7.0,48,0.00,CLR,,0.00,WeatherDisplay:10.37,2013-11-16 18:55:00,
2013-11-16 14:00:00,55.0,36.2,30.24,South,174,1.0,7.0,49,0.00,CLR,,0.00,WeatherDisplay:10.37,2013-11-16 19:00:00,
2013-11-16 14:10:00,54.9,36.1,30.24,SSW,202,1.0,6.0,49,0.00,CLR,,0.00,WeatherDisplay:10.37,2013-11-16 19:10:00,
2013-11-16 14:20:00,54.9,36.1,30.24,SW,217,1.0,3.0,49,0.00,CLR,,0.00,WeatherDisplay:10.37,2013-11-16 19:20:00,
2013-11-16 14:25:00,55.0,36.7,30.24,SSE,160,0.0,2.0,50,0.00,CLR,,0.00,WeatherDisplay:10.37,2013-11-16 19:25:00,
2013-11-16 14:30:00,55.0,36.1,30.24,SSE,163,0.0,7.0,49,0.00,CLR,,0.00,WeatherDisplay:10.37,2013-11-16 19:30:00,
2013-11-16 14:40:00,54.9,36.6,30.24,ENE,74,0.0,5.0,50,0.00,CLR,,0.00,WeatherDisplay:10.37,2013-11-16 19:40:00,
2013-11-16 14:45:00,54.8,36.5,30.25,ENE,65,1.0,3.0,50,0.00,CLR,,0.00,WeatherDisplay:10.37,2013-11-16 19:45:00,
2013-11-16 14:55:00,54.5,36.7,30.25,SE,133,0.0,5.0,51,0.00,CLR,,0.00,WeatherDisplay:10.37,2013-11-16 19:55:00,
2013-11-16 15:00:00,54.3,36.0,30.25,ESE,114,0.0,0.0,50,0.00,CLR,,0.00,WeatherDisplay:10.37,2013-11-16 20:00:00,
2013-11-16 15:10:00,53.8,35.6,30.25,ESE,114,0.0,0.0,50,0.00,CLR,,0.00,WeatherDisplay:10.37,2013-11-16 20:10:00,
2013-11-16 15:15:00,53.6,34.9,30.25,ESE,114,0.0,0.0,49,0.00,CLR,,0.00,WeatherDisplay:10.37,2013-11-16 20:15:00,
2013-11-16 15:25:00,53.3,35.2,30.25,ESE,114,0.0,0.0,50,0.00,CLR,,0.00,WeatherDisplay:10.37,2013-11-16 20:25:00,
2013-11-16 15:30:00,53.1,35.5,30.26,ESE,114,0.0,0.0,51,0.00,CLR,,0.00,WeatherDisplay:10.37,2013-11-16 20:30:00,
2013-11-16 15:40:00,52.4,36.2,30.26,ESE,114,0.0,0.0,54,0.00,CLR,,0.00,WeatherDisplay:10.37,2013-11-16 20:40:00,
2013-11-16 15:45:00,51.9,36.2,30.26,ESE,114,0.0,0.0,55,0.00,CLR,,0.00,WeatherDisplay:10.37,2013-11-16 20:45:00,
2013-11-16 15:55:00,50.9,35.8,30.26,ESE,114,0.0,0.0,56,0.00,CLR,,0.00,WeatherDisplay:10.37,2013-11-16 20:55:00,
2013-11-16 16:00:00,50.3,35.2,30.26,ESE,114,0.0,0.0,56,0.00,CLR,,0.00,WeatherDisplay:10.37,2013-11-16 21:00:00,
2013-11-16 16:10:00,49.5,34.9,30.26,ESE,114,0.0,4.0,57,0.00,CLR,,0.00,WeatherDisplay:10.37,2013-11-16 21:10:00,
2013-11-16 16:15:00,49.2,35.1,30.26,SE,125,0.0,5.0,58,0.00,CLR,,0.00,WeatherDisplay:10.37,2013-11-16 21:15:00,
2013-11-16 16:25:00,48.6,34.9,30.26,ESE,107,0.0,3.0,59,0.00,CLR,,0.00,WeatherDisplay:10.37,2013-11-16 21:25:00,
2013-11-16 16:30:00,48.3,35.0,30.26,ESE,106,0.0,5.0,60,0.00,CLR,,0.00,WeatherDisplay:10.37,2013-11-16 21:30:00,
2013-11-16 16:40:00,47.5,35.5,30.26,SSW,196,0.0,0.0,63,0.00,CLR,,0.00,WeatherDisplay:10.37,2013-11-16 21:40:00,
2013-11-16 16:45:00,46.9,34.6,30.26,SSW,196,0.0,0.0,62,0.00,CLR,,0.00,WeatherDisplay:10.37,2013-11-16 21:45:00,
2013-11-16 16:55:00,45.9,34.8,30.26,SSW,196,0.0,0.0,65,0.00,CLR,,0.00,WeatherDisplay:10.37,2013-11-16 21:55:00,
2013-11-16 17:00:00,45.7,34.6,30.26,SSW,196,0.0,0.0,65,0.00,CLR,,0.00,WeatherDisplay:10.37,2013-11-16 22:00:00,
2013-11-16 17:10:00,45.6,34.1,30.26,SSW,196,0.0,0.0,64,0.00,CLR,,0.00,WeatherDisplay:10.37,2013-11-16 22:10:00,
2013-11-16 17:15:00,45.4,33.9,30.26,SSW,196,0.0,0.0,64,0.00,CLR,,0.00,WeatherDisplay:10.37,2013-11-16 22:15:00,
2013-11-16 17:25:00,45.7,33.0,30.27,SSW,196,0.0,0.0,61,0.00,CLR,,0.00,WeatherDisplay:10.37,2013-11-16 22:25:00,
2013-11-16 17:30:00,46.0,32.5,30.27,SSW,196,0.0,0.0,59,0.00,CLR,,0.00,WeatherDisplay:10.37,2013-11-16 22:30:00,
2013-11-16 17:40:00,45.9,32.8,30.27,SSW,196,0.0,0.0,60,0.00,CLR,,0.00,WeatherDisplay:10.37,2013-11-16 22:40:00,
2013-11-16 17:45:00,45.7,33.0,30.27,SSW,196,0.0,0.0,61,0.00,CLR,,0.00,WeatherDisplay:10.37,2013-11-16 22:45:00,
2013-11-16 17:55:00,45.1,32.5,30.27,SSW,196,0.0,0.0,61,0.00,CLR,,0.00,WeatherDisplay:10.37,2013-11-16 22:55:00,
2013-11-16 18:00:00,45.0,33.2,30.27,SSW,196,0.0,0.0,63,0.00,CLR,,0.00,WeatherDisplay:10.37,2013-11-16 23:00:00,
2013-11-16 18:10:00,44.7,33.3,30.28,SSW,196,0.0,0.0,64,0.00,CLR,,0.00,WeatherDisplay:10.37,2013-11-16 23:10:00,
2013-11-16 18:15:00,44.5,33.1,30.28,SSW,196,0.0,0.0,64,0.00,CLR,,0.00,WeatherDisplay:10.37,2013-11-16 23:15:00,
2013-11-16 18:25:00,44.3,34.4,30.28,SSW,196,0.0,0.0,68,0.00,CLR,,0.00,WeatherDisplay:10.37,2013-11-16 23:25:00,
2013-11-16 18:30:00,44.2,33.9,30.27,SSW,196,0.0,0.0,67,0.00,CLR,,0.00,WeatherDisplay:10.37,2013-11-16 23:30:00,
2013-11-16 18:40:00,43.7,34.9,30.27,SSW,196,0.0,0.0,71,0.00,CLR,,0.00,WeatherDisplay:10.37,2013-11-16 23:40:00,
2013-11-16 18:45:00,43.5,34.7,30.28,SSW,196,0.0,0.0,71,0.00,CLR,,0.00,WeatherDisplay:10.37,2013-11-16 23:45:00,
2013-11-16 18:55:00,43.0,34.6,30.27,SSW,196,0.0,0.0,72,0.00,CLR,,0.00,WeatherDisplay:10.37,2013-11-16 23:55:00,
2013-11-16 19:00:00,42.8,34.8,30.28,SSW,196,0.0,0.0,73,0.00,CLR,,0.00,WeatherDisplay:10.37,2013-11-17 00:00:00,
2013-11-16 19:10:00,42.5,35.8,30.27,SSW,196,0.0,0.0,77,0.00,CLR,,0.00,WeatherDisplay:10.37,2013-11-17 00:10:00,
2013-11-16 19:15:00,42.3,35.9,30.27,SSW,196,0.0,0.0,78,0.00,CLR,,0.00,WeatherDisplay:10.37,2013-11-17 00:15:00,
2013-11-16 19:25:00,41.9,35.5,30.27,SSW,196,0.0,0.0,78,0.00,CLR,,0.00,WeatherDisplay:10.37,2013-11-17 00:25:00,
2013-11-16 19:30:00,41.6,35.0,30.27,SSW,196,0.0,0.0,77,0.00,CLR,,0.00,WeatherDisplay:10.37,2013-11-17 00:30:00,
2013-11-16 19:40:00,41.3,35.0,30.28,SSW,196,0.0,0.0,78,0.00,CLR,,0.00,WeatherDisplay:10.37,2013-11-17 00:40:00,
2013-11-16 19:45:00,41.1,34.4,30.29,SSW,196,0.0,0.0,77,0.00,CLR,,0.00,WeatherDisplay:10.37,2013-11-17 00:45:00,
2013-11-16 19:55:00,40.8,33.8,30.29,SSW,196,0.0,0.0,76,0.00,CLR,,0.00,WeatherDisplay:10.37,2013-11-17 00:55:00,
2013-11-16 20:00:00,40.7,33.7,30.29,SSW,196,0.0,0.0,76,0.00,CLR,,0.00,WeatherDisplay:10.37,2013-11-17 01:00:00,
2013-11-16 20:10:00,40.4,34.1,30.28,SSW,196,0.0,0.0,78,0.00,CLR,,0.00,WeatherDisplay:10.37,2013-11-17 01:10:00,
2013-11-16 20:15:00,40.2,33.9,30.28,SSW,196,0.0,0.0,78,0.00,CLR,,0.00,WeatherDisplay:10.37,2013-11-17 01:15:00,
2013-11-16 20:25:00,40.2,34.6,30.28,South,185,1.0,3.0,80,0.00,CLR,,0.00,WeatherDisplay:10.37,2013-11-17 01:25:00,
2013-11-16 20:30:00,40.3,34.6,30.28,SSE,154,0.0,0.0,80,0.00,CLR,,0.00,WeatherDisplay:10.37,2013-11-17 01:30:00,
2013-11-16 20:40:00,40.4,34.7,30.27,SE,140,0.0,0.0,80,0.00,CLR,,0.00,WeatherDisplay:10.37,2013-11-17 01:40:00,
2013-11-16 20:45:00,40.5,34.5,30.27,SE,140,0.0,0.0,79,0.00,CLR,,0.00,WeatherDisplay:10.37,2013-11-17 01:45:00,
2013-11-16 20:55:00,40.8,34.1,30.27,SE,140,0.0,0.0,77,0.00,CLR,,0.00,WeatherDisplay:10.37,2013-11-17 01:55:00,
2013-11-16 21:00:00,40.8,34.1,30.27,SE,140,0.0,0.0,77,0.00,CLR,,0.00,WeatherDisplay:10.37,2013-11-17 02:00:00,
2013-11-16 21:10:00,40.5,34.5,30.27,SE,140,0.0,0.0,79,0.00,CLR,,0.00,WeatherDisplay:10.37,2013-11-17 02:10:00,
2013-11-16 21:15:00,40.3,34.0,30.28,SE,140,0.0,0.0,78,0.00,CLR,,0.00,WeatherDisplay:10.37,2013-11-17 02:15:00,
2013-11-16 21:25:00,39.7,34.1,30.28,SE,140,0.0,0.0,80,0.00,CLR,,0.00,WeatherDisplay:10.37,2013-11-17 02:25:00,
2013-11-16 21:30:00,39.5,33.8,30.28,SE,140,0.0,0.0,80,0.00,CLR,,0.00,WeatherDisplay:10.37,2013-11-17 02:30:00,
2013-11-16 21:40:00,38.9,33.5,30.28,SE,140,0.0,0.0,81,0.00,CLR,,0.00,WeatherDisplay:10.37,2013-11-17 02:40:00,
2013-11-16 21:45:00,38.6,33.6,30.28,SE,140,0.0,0.0,82,0.00,CLR,,0.00,WeatherDisplay:10.37,2013-11-17 02:45:00,
2013-11-16 21:55:00,38.2,33.2,30.29,SE,140,0.0,0.0,82,0.00,CLR,,0.00,WeatherDisplay:10.37,2013-11-17 02:55:00,
2013-11-16 22:00:00,37.9,33.2,30.29,SE,140,0.0,0.0,83,0.00,CLR,,0.00,WeatherDisplay:10.37,2013-11-17 03:00:00,
2013-11-16 22:10:00,37.5,32.8,30.29,SE,140,0.0,0.0,83,0.00,CLR,,0.00,WeatherDisplay:10.37,2013-11-17 03:10:00,
2013-11-16 22:15:00,37.4,33.0,30.29,SE,140,0.0,0.0,84,0.00,CLR,,0.00,WeatherDisplay:10.37,2013-11-17 03:15:00,
2013-11-16 22:25:00,37.1,33.0,30.29,SE,140,0.0,0.0,85,0.00,CLR,,0.00,WeatherDisplay:10.37,2013-11-17 03:25:00,
2013-11-16 22:30:00,36.9,33.1,30.29,SE,140,0.0,0.0,86,0.00,CLR,,0.00,WeatherDisplay:10.37,2013-11-17 03:30:00,
2013-11-16 22:40:00,36.5,33.3,30.29,SE,140,0.0,0.0,88,0.00,CLR,,0.00,WeatherDisplay:10.37,2013-11-17 03:40:00,
2013-11-16 22:45:00,36.4,32.9,30.29,SE,140,0.0,0.0,87,0.00,CLR,,0.00,WeatherDisplay:10.37,2013-11-17 03:45:00,
2013-11-16 22:55:00,36.1,32.9,30.29,SE,140,0.0,0.0,88,0.00,CLR,,0.00,WeatherDisplay:10.37,2013-11-17 03:55:00,
2013-11-16 23:00:00,35.9,32.7,30.29,SE,140,0.0,0.0,88,0.00,CLR,,0.00,WeatherDisplay:10.37,2013-11-17 04:00:00,
2013-11-16 23:10:00,35.8,32.9,30.29,SE,140,0.0,0.0,89,0.00,CLR,,0.00,WeatherDisplay:10.37,2013-11-17 04:10:00,
2013-11-16 23:15:00,35.8,33.2,30.29,SE,140,0.0,0.0,90,0.00,CLR,,0.00,WeatherDisplay:10.37,2013-11-17 04:15:00,
2013-11-16 23:25:00,35.6,33.0,30.29,SE,140,0.0,0.0,90,0.00,CLR,,0.00,WeatherDisplay:10.37,2013-11-17 04:25:00,
2013-11-16 23:30:00,35.5,32.9,30.29,SE,140,0.0,0.0,90,0.00,CLR,,0.00,WeatherDisplay:10.37,2013-11-17 04:30:00,
2013-11-16 23:40:00,35.4,32.7,30.29,SE,140,0.0,0.0,90,0.00,CLR,,0.00,WeatherDisplay:10.37,2013-11-17 04:40:00,
2013-11-16 23:45:00,35.3,32.7,30.29,SE,140,0.0,0.0,90,0.00,CLR,,0.00,WeatherDisplay:10.37,2013-11-17 04:45:00,
2013-11-16 23:55:00,35.3,32.4,30.29,SE,140,0.0,0.0,89,0.00,CLR,,0.00,WeatherDisplay:10.37,2013-11-17 04:55:00,